Regional Weather Roundup
Issued by NWS

Home | Current Version | Previous Version | Text Only | Print | Product List | Glossary Off
Versions: 1 2 3 4 5 6 7 8 9 10 11 12 13 14 15 16 17 18 19 20 21 22 23 24 25 26 27 28 29 30 31 32 33 34 35 36 37 38 39 40 41 42 43 44 45 46 47 48 49 50

000
ASUS43 KDTX 212010
RWRMI
MICHIGAN HOURLY REGIONAL WEATHER ROUNDUP
NATIONAL WEATHER SERVICE DETROIT/PONTIAC MI
300 PM EST FRI NOV 21 2014

NOTE: "FAIR" INDICATES FEW OR NO CLOUDS BELOW 12,000 FEET WITH NO
SIGNIFICANT WEATHER AND/OR OBSTRUCTION TO VISIBILITY.

MIZ047>049-052>055-059>063-066>070-074>076-081>083-212100-
SOUTHEAST LOWER MICHIGAN

CITY           SKY/WX    TMP DP  RH WIND       PRES   REMARKS
ADRIAN         SUNNY     26  13  57 SW9       30.44F WCI  17
ALMA           SUNNY     25  14  62 S8        30.39F WCI  16
ANN ARBOR      SUNNY     26  10  50 SW9       30.42F WCI  17
BAD AXE        SUNNY     25  11  55 W10       30.37F WCI  15
CARO           SUNNY     27  12  54 SW7       30.38F WCI  19
DETROIT CITY   SUNNY     27   9  46 W7        30.44F WCI  19
DETROIT        MOSUNNY   27  11  51 SW8       30.45F WCI  19
FLINT          SUNNY     26   9  48 SW8       30.41F WCI  18
GROSSE ILE     SUNNY     27  10  50 SW7       30.44F WCI  19
HILLSDALE      SUNNY     28  11  49 SW7       30.39F WCI  20
HOWELL         SUNNY     25  11  54 SW6       30.40S WCI  18

CITY           SKY/WX    TMP DP  RH WIND       PRES   REMARKS
JACKSON        SUNNY     26  13  57 SW10      30.40F WCI  16
LAMBERTVILLE   SUNNY     28  14  54 W7        30.46S WCI  21
LANSING        MOSUNNY   25  13  60 SW5       30.40F WCI  19
LAPEER         FAIR      24   9  54 W9        30.40F WCI  14
MASON          SUNNY     26  14  59 S5        30.40F WCI  20
MONROE         MOSUNNY   27  16  63 SW8       30.44F WCI  18
MT. CLEMENS    SUNNY     26   9  48 SW13      30.41F WCI  14
PONTIAC        MOSUNNY   24   7  48 SW6       30.39F WCI  17
PORT HOPE        N/A     26  11  52 SW8G17    30.36F WCI  18
PORT HURON     SUNNY     25   9  50 SW6       30.43S WCI  18
TRI CITIES     SUNNY     26  10  50 SW16      30.39F WCI  14
TROY           SUNNY     28   7  40 SW9       30.44S WCI  20
SAGINAW HB     SUNNY     27  14  59 S14       30.39S WCI  15
$$
MIZ043>046-050>051-056>058-064>065-071>073-077>080-212100-
SOUTHWEST LOWER MICHIGAN

CITY           SKY/WX    TMP DP  RH WIND       PRES   REMARKS
BATTLE CREEK   SUNNY     26  13  57 S12       30.40F WCI  16
BENTON HARBOR  SUNNY     29  12  49 SE10      30.38F WCI  20
BIG RAPIDS     MOSUNNY   27  15  61 SW8G16    30.33F WCI  18
COLDWATER      SUNNY     28  14  54 S7        30.40F WCI  21
FREMONT        FAIR      27  14  58 S8        30.35F WCI  19
HOLLAND        SUNNY     31  16  54 S13       30.38F WCI  21
GRAND RAPIDS   MOSUNNY   26  15  63 S10       30.38F WCI  16
IONIA          FAIR      27  17  66 S6        30.38F WCI  20
KALAMAZOO      SUNNY     26  14  60 S10       30.40F WCI  16
LUDINGTON      PTSUNNY   29  20  68 SW13G22   30.33F WCI  19
MARSHALL       SUNNY     25  12  57 SW7       30.40F WCI  18
MOUNT PLEASANT SUNNY     27  13  56 SW7       30.36F WCI  19
MUSKEGON       PTSUNNY   30  17  58 SW14G22   30.37F WCI  19
SOUTH HAVEN    SUNNY     31  16  53 S9        30.38F WCI  23
$$
MIZ016>042-212100-
NORTHERN LOWER MICHIGAN

CITY           SKY/WX    TMP DP  RH WIND       PRES   REMARKS
ALPENA         MOSUNNY   26  11  52 SW14      30.30F WCI  14
BEAVER ISLAND  CLOUDY    28  17  63 SW14G25   30.24F WCI  17
BELLAIRE       CLOUDY    27  14  57 SW8G16    30.31S WCI  19
CADILLAC       CLOUDY    23  14  68 SW14      30.27F WCI  11
CHARLEVOIX     CLOUDY    27  14  59 SW12G21   30.30F WCI  16
FRANKFORT      CLOUDY    29  19  67 SW13G21   30.29F WCI  18
GAYLORD        CLOUDY    21  12  68 SW17      30.26S WCI   7
GRAYLING       CLOUDY    25  13  59 SW12G20   30.29F WCI  14
HARBOR SPRINGS CLOUDY    27  15  60 SW13G20   30.27F WCI  16
HOUGHTON LAKE  SUNNY     25  11  55 SW9       30.30F WCI  15
MANISTEE       PTSUNNY   28  14  54 S9G20     30.32F WCI  20
OSCODA         SUNNY     28  13  54 SW12G18   30.33F WCI  18
PELLSTON       CLOUDY    26  13  57 SW12      30.27F WCI  16
ROGERS CITY    PTSUNNY   27  17  65 SW13G18   30.30S WCI  16
TRAVERSE CITY  PTSUNNY   28  12  51 VRB5      30.29F WCI  23
$$
MIZ007>008-015-212100-
EASTERN UPPER MICHIGAN

CITY           SKY/WX    TMP DP  RH WIND       PRES   REMARKS
KINROSS        CLOUDY    27  19  74 SW14G21   30.22F WCI  15
MACKINAC ISLAN CLOUDY    27  16  62 SW17G25   30.24F WCI  15
NEWBERRY       PTSUNNY   23  14  69 SW20      30.18F WCI   8
S. S. MARIE    CLOUDY    23  14  68 S8        30.20F WCI  14
MUNISING         N/A     23   5  46 S13G23    30.15F WCI  11
$$
MIZ004>006-011>014-085-212100-
CENTRAL UPPER MICHIGAN

CITY           SKY/WX    TMP DP  RH WIND       PRES   REMARKS
MANISTIQUE     CLOUDY    25  13  61 SW16G22   30.21F WCI  12
ESCANABA       CLOUDY    23   3  42 SW13G21   30.20F WCI  11
MENOMINEE      MOSUNNY   25   9  50 SW17G26   30.23F WCI  11
SAWYER-GWINN   CLOUDY    19   7  58 S17       30.11F WCI   4
$$
MIZ001>003-009>011-084-212100-
WESTERN UPPER MICHIGAN

CITY           SKY/WX    TMP DP  RH WIND       PRES   REMARKS
IRON MOUNTAIN  MOSUNNY   21   3  45 S12       30.13F WCI   9
HOUGHTON       CLOUDY    21   7  54 SW10      30.00F WCI  10
COPPER HARBOR    N/A     23  10  57 SW12G22   30.02F WCI  12
IRONWOOD       MOSUNNY   27   7  43 S16       29.95F WCI  14
$$

ABBREVIATIONS USED IN REMARKS
   TC - TEMPERATURE IN CELSIUS
  WCI - WIND CHILL INDEX
   HX - HEAT INDEX
  VSB - VISIBILITY



USA.gov is the U.S. government's official web portal to all federal, state and local government web resources and services.